Miscellaneous Local Product
Issued by NWS Hastings, NE

Home | Current Version | Previous Version | Text Only | Print | Product List | Glossary On
Versions: 1 2 3 4 5 6 7 8 9 10 11 12 13 14 15 16 17 18 19 20 21 22 23 24 25 26 27 28 29 30 31 32 33 34 35 36 37 38 39 40 41 42 43 44 45 46 47 48 49 50
214
AXUS43 KGID 030702
MISGRI

GID CWA HOURLY WEATHER ROUNDUP
NATIONAL WEATHER SERVICE HASTINGS NE
200 AM CDT TUE MAY 03 2016

NOTE: "FAIR" INDICATES FEW OR NO CLOUDS BELOW 12,000 FEET WITH NO
SIGNIFICANT WEATHER AND/OR OBSTRUCTIONS TO VISIBILITY.

...SOUTH CENTRAL NEBRASKA...

CITY           SKY/WX    TMP DP  RH WIND       PRES   REMARKS
GRAND ISLAND   CLEAR     45  38  76 S6        30.05S
HASTINGS       CLEAR     43  36  76 CALM      30.04F
KEARNEY        CLEAR     45  37  76 S7        30.04S
ORD            CLEAR     39  37  92 CALM      30.03S
YORK           CLEAR     41  39  93 SW5       30.06S
AURORA         CLEAR     48  38  68 S3        30.05S
LEXINGTON      CLOUDY    47  41  81 NW8       30.05R
HOLDREGE       MOCLDY    46  39  78 SE5       30.04R
HEBRON         PTCLDY    42  40  94 CALM      30.05S

...NEBRASKA PANHANDLE...

CITY           SKY/WX    TMP DP  RH WIND       PRES   REMARKS
CHADRON        CLEAR     43  39  86 CALM      30.07R
ALLIANCE       CLEAR     40  37  89 NW8       30.03F WCI  34
SCOTTSBLUFF    CLOUDY    43  38  82 W6        30.08F
SIDNEY         CLOUDY    42  36  79 W14       30.07F

...WESTERN AND NORTH CENTRAL NEBRASKA...

CITY           SKY/WX    TMP DP  RH WIND       PRES   REMARKS
VALENTINE      CLEAR     41  39  93 NW6       30.05F
AINSWORTH        N/A     43  42  98 CALM      30.05F FOG
ONEILL         CLOUDY    50  47  88 CALM      30.06R
BROKEN BOW     CLOUDY    47  41  80 W3        30.04R
IMPERIAL       CLOUDY    45  41  86 SE5       30.04F
NORTH PLATTE   CLOUDY    45  44  97 E7        30.05F
MCCOOK         LGT RAIN  48  43  82 N16       30.06R

...EASTERN NEBRASKA...

CITY           SKY/WX    TMP DP  RH WIND       PRES   REMARKS
NORFOLK        PTCLDY    43  39  86 CALM      30.04S
SO SIOUX CITY  PTCLDY    43  40  89 CALM      30.04F
TEKAMAH        MOCLDY    47  45  93 S3        30.05S
COLUMBUS       CLEAR     43  34  70 CALM      30.06S
ALBION         CLOUDY    45  40  85 CALM      30.05S
OMAHA EPPLEY   PTCLDY    47  43  86 CALM      30.05S
MILLARD        PTCLDY    45  43  92 CALM      30.06R
LINCOLN        CLEAR     48  43  82 CALM      30.07S
NEBRASKA CITY  CLOUDY    47  42  85 SW3       30.06R
BEATRICE       PTCLDY    45  42  90 E3        30.06S
FALLS CITY     PTCLDY    46  42  86 CALM      30.06S

...NORTHERN KANSAS...

CITY           SKY/WX    TMP DP  RH WIND       PRES   REMARKS
GOODLAND       PTCLDY    47  34  60 W9        30.03F
HILL CITY      CLEAR     46  38  73 NW3       30.03F
NORTON         SUNNY     48  36  61 SE5       30.02
PHILLIPSBURG   CLOUDY    48  39  71 CALM      30.04S
SMITH CENTER   PTCLDY    43  39  87 SE6       30.05S
BELOIT         CLEAR     43  39  87 CALM      30.05R
HAYS           MOCLDY    45  34  65 S7        30.04F
RUSSELL        CLEAR     47  40  76 S10       30.03S
CONCORDIA      PTCLDY    45  35  68 S3        30.05S
SALINA         PTCLDY    46  41  82 SE5       30.06S
TOPEKA         CLEAR     43  41  93 CALM      30.07S



USA.gov is the U.S. government's official web portal to all federal, state and local government web resources and services.